Observations for Trim Market St
| Time | AQI | Temp °C | Hum % | Pres Pa | CO μg/m³ | H₂S μg/m³ | NO μg/m³ | NO₂ μg/m³ | O₃ μg/m³ | SO₂ μg/m³ | PM1 μg/m³ | PM2.5 μg/m³ | PM10 μg/m³ |
|---|---|---|---|---|---|---|---|---|---|---|---|---|---|
| Tuesday 14 July 2026 | |||||||||||||
| 09:44 | 1 | 30.3 | 39 | 65,205 | 0 | 0 | 0 | 0.96 | 27.26 | 0 | 2.85 | 6.11 | 6.71 |
| 09:43 | 1 | 30.2 | 39 | 65,157 | 0 | 0 | 0 | 0 | 19.67 | 0 | 2.14 | 5.04 | 5.09 |
| 09:42 | 1 | 30.1 | 39 | 65,157 | 0 | 0 | 0 | 0 | 24.59 | 0 | 2.85 | 5.56 | 5.91 |
| 09:41 | 1 | 30.1 | 39 | 65,155 | 0 | 0 | 0 | 0 | 24.06 | 0 | 2.14 | 6.08 | 6.72 |
| 09:40 | 1 | 30 | 39 | 65,127 | 0 | 0 | 0 | 0 | 30.81 | 0 | 1.43 | 4.5 | 4.95 |
| 09:32 | 1 | 29.5 | 40 | 64,923 | 0 | 0 | 0 | 0 | 30.78 | 0 | 2.85 | 5 | 5.11 |
| 09:28 | 1 | 29.4 | 40 | 64,908 | 0 | 0 | 0 | 0 | 22.57 | 0 | 2.85 | 5 | 5.11 |
| 09:27 | 1 | 29.4 | 40 | 64,931 | 0 | 0 | 0 | 0 | 22.45 | 0 | 2.85 | 6.05 | 6.72 |
| 09:24 | 1 | 29.3 | 40 | 64,900 | 0 | 0 | 0 | 0 | 27.23 | 0 | 2.14 | 4.47 | 4.92 |
| 09:21 | 1 | 29.3 | 40 | 64,856 | 0 | 0 | 0 | 0 | 21.27 | 0 | 2.85 | 5.52 | 8.33 |
| 09:20 | 1 | 29.3 | 40 | 64,870 | 0 | 0 | 0 | 0 | 24.66 | 0 | 2.85 | 4.99 | 5.92 |
| 09:19 | 1 | 29.2 | 40 | 64,890 | 0 | 0 | 0 | 0 | 25.71 | 0 | 2.85 | 5.52 | 5.92 |
| 09:18 | 1 | 29.2 | 40 | 64,880 | 0 | 0 | 0 | 0 | 20.56 | 0 | 2.14 | 4.99 | 5.11 |
| 09:17 | 1 | 29.2 | 40 | 64,839 | 0 | 0 | 0 | 0 | 16.09 | 0 | 2.14 | 5.51 | 6.72 |
| 09:16 | 1 | 29.2 | 40 | 64,809 | 0 | 0 | 0 | 0 | 23.72 | 0 | 1.43 | 4.98 | 6.72 |
| 09:15 | 1 | 29.2 | 40 | 64,809 | 0 | 0 | 0 | 0 | 21.07 | 0 | 2.14 | 4.98 | 5.12 |
| 09:14 | 1 | 29.2 | 40 | 64,839 | 0 | 0 | 0 | 0 | 19.41 | 0 | 2.85 | 5.52 | 6.72 |
| 09:13 | 1 | 29.2 | 40 | 64,845 | 0 | 0 | 0 | 0 | 16.27 | 0 | 2.85 | 7.1 | 9.13 |
| 09:12 | 1 | 29.2 | 40 | 64,848 | 0 | 0 | 0 | 0 | 19.18 | 0 | 2.85 | 5.51 | 5.92 |
| 09:11 | 1 | 29.2 | 40 | 64,856 | 0 | 0 | 0 | 0 | 16.06 | 0 | 3.56 | 6.04 | 6.72 |